Year,Month,Day,Hour,Minute,Value (Times are PST for temperature in C)
2019,06,04,00,00,11.60
2019,06,04,00,01,11.60
2019,06,04,00,02,11.60
2019,06,04,00,03,11.50
2019,06,04,00,04,11.30
2019,06,04,00,05,11.20
2019,06,04,00,06,11.20
2019,06,04,00,07,11.10
2019,06,04,00,08,11.00
2019,06,04,00,09,10.90
2019,06,04,00,10,10.80
2019,06,04,00,11,10.80
2019,06,04,00,12,10.70
2019,06,04,00,13,10.60
2019,06,04,00,14,10.60
2019,06,04,00,15,10.50
2019,06,04,00,16,10.40
2019,06,04,00,17,10.40
2019,06,04,00,18,10.30
2019,06,04,00,19,10.20
2019,06,04,00,20,10.20
2019,06,04,00,21,10.10
2019,06,04,00,22,10.10
2019,06,04,00,23,10.00
2019,06,04,00,24,10.00
2019,06,04,00,25,10.00
2019,06,04,00,26,10.00
2019,06,04,00,27,10.00
2019,06,04,00,28,10.00
2019,06,04,00,29,10.00
2019,06,04,00,30,10.10
2019,06,04,00,31,10.10
2019,06,04,00,32,10.10
2019,06,04,00,33,10.10
2019,06,04,00,34,10.00
2019,06,04,00,35,10.00
2019,06,04,00,36,9.90
2019,06,04,00,37,9.90
2019,06,04,00,38,9.80
2019,06,04,00,39,9.80
2019,06,04,00,40,9.80
2019,06,04,00,41,9.70
2019,06,04,00,42,9.70
2019,06,04,00,43,9.70
2019,06,04,00,44,9.70
2019,06,04,00,45,9.80
2019,06,04,00,46,9.70
2019,06,04,00,47,9.70
2019,06,04,00,48,9.70
2019,06,04,00,49,9.70
2019,06,04,00,50,9.70
2019,06,04,00,51,9.70
2019,06,04,00,52,9.70
2019,06,04,00,53,9.70
2019,06,04,00,54,9.70
2019,06,04,00,55,9.70
2019,06,04,00,56,9.60
2019,06,04,00,57,9.60
2019,06,04,00,58,9.60
2019,06,04,00,59,9.60
2019,06,04,01,00,9.60
2019,06,04,01,01,9.60
2019,06,04,01,02,9.60
2019,06,04,01,03,9.50
2019,06,04,01,04,9.50
2019,06,04,01,05,9.50
2019,06,04,01,06,9.40
2019,06,04,01,07,9.40
2019,06,04,01,08,9.40
2019,06,04,01,09,9.40
2019,06,04,01,10,9.30
2019,06,04,01,11,9.30
2019,06,04,01,12,9.30
2019,06,04,01,13,9.30
2019,06,04,01,14,9.20
2019,06,04,01,15,9.20
2019,06,04,01,16,9.20
2019,06,04,01,17,9.20
2019,06,04,01,18,9.10
2019,06,04,01,19,9.10
2019,06,04,01,20,9.10
2019,06,04,01,21,9.10
2019,06,04,01,22,9.00
2019,06,04,01,23,9.00
2019,06,04,01,24,9.00
2019,06,04,01,25,9.00
2019,06,04,01,26,8.90
2019,06,04,01,27,8.90
2019,06,04,01,28,8.90
2019,06,04,01,29,8.80
2019,06,04,01,30,8.80
2019,06,04,01,31,8.80
2019,06,04,01,32,8.70
2019,06,04,01,33,8.70
2019,06,04,01,34,8.60
2019,06,04,01,35,8.60
2019,06,04,01,36,8.60
2019,06,04,01,37,8.60
2019,06,04,01,38,8.50
2019,06,04,01,39,8.50
2019,06,04,01,40,8.50
2019,06,04,01,41,8.40
2019,06,04,01,42,8.40
2019,06,04,01,43,8.40
2019,06,04,01,44,8.30
2019,06,04,01,45,8.30
2019,06,04,01,46,8.30
2019,06,04,01,47,8.30
2019,06,04,01,48,8.20
2019,06,04,01,49,8.20
2019,06,04,01,50,8.20
2019,06,04,01,51,8.10
2019,06,04,01,52,8.10
2019,06,04,01,53,8.10
2019,06,04,01,54,8.00
2019,06,04,01,55,8.00
2019,06,04,01,56,8.00
2019,06,04,01,57,7.90
2019,06,04,01,58,7.90
2019,06,04,01,59,7.80
2019,06,04,02,00,7.80
2019,06,04,02,01,7.80
2019,06,04,02,02,7.80
2019,06,04,02,03,7.70
2019,06,04,02,04,7.70
2019,06,04,02,05,7.60
2019,06,04,02,06,7.60
2019,06,04,02,07,7.60
2019,06,04,02,08,7.50
2019,06,04,02,09,7.50
2019,06,04,02,10,7.50
2019,06,04,02,11,7.40
2019,06,04,02,12,7.30
2019,06,04,02,13,7.30
2019,06,04,02,14,7.20
2019,06,04,02,15,7.20
2019,06,04,02,16,7.10
2019,06,04,02,17,7.10
2019,06,04,02,18,7.10
2019,06,04,02,19,7.10
2019,06,04,02,20,7.00
2019,06,04,02,21,6.90
2019,06,04,02,22,6.80
2019,06,04,02,23,6.80
2019,06,04,02,24,6.80
2019,06,04,02,25,6.80
2019,06,04,02,26,6.80
2019,06,04,02,27,6.70
2019,06,04,02,28,6.70
2019,06,04,02,29,6.70
2019,06,04,02,30,6.60
2019,06,04,02,31,6.60
2019,06,04,02,32,6.60
2019,06,04,02,33,6.50
2019,06,04,02,34,6.50
2019,06,04,02,35,6.50
2019,06,04,02,36,6.50
2019,06,04,02,37,6.40
2019,06,04,02,38,6.40
2019,06,04,02,39,6.30
2019,06,04,02,40,6.30
2019,06,04,02,41,6.30
2019,06,04,02,42,6.20
2019,06,04,02,43,6.20
2019,06,04,02,44,6.10
2019,06,04,02,45,6.10
2019,06,04,02,46,6.00
2019,06,04,02,47,6.00
2019,06,04,02,48,6.00
2019,06,04,02,49,5.90
2019,06,04,02,50,5.90
2019,06,04,02,51,5.90
2019,06,04,02,52,5.80
2019,06,04,02,53,5.80
2019,06,04,02,54,5.80
2019,06,04,02,55,5.70
2019,06,04,02,56,5.70
2019,06,04,02,57,5.70
2019,06,04,02,58,5.60
2019,06,04,02,59,5.60
2019,06,04,03,00,5.60
2019,06,04,03,01,5.60
2019,06,04,03,02,5.60
2019,06,04,03,03,5.50
2019,06,04,03,04,5.50
2019,06,04,03,05,5.50
2019,06,04,03,06,5.40
2019,06,04,03,07,5.40
2019,06,04,03,08,5.40
2019,06,04,03,09,5.40
2019,06,04,03,10,5.30
2019,06,04,03,11,5.30
2019,06,04,03,12,5.30
2019,06,04,03,13,5.30
2019,06,04,03,14,5.30
2019,06,04,03,15,5.20
2019,06,04,03,16,5.20
2019,06,04,03,17,5.20
2019,06,04,03,18,5.10
2019,06,04,03,19,5.10
2019,06,04,03,20,5.10
2019,06,04,03,21,5.10
2019,06,04,03,22,5.00
2019,06,04,03,23,5.00
2019,06,04,03,24,5.00
2019,06,04,03,25,4.90
2019,06,04,03,26,4.90
2019,06,04,03,27,4.90
2019,06,04,03,28,4.90
2019,06,04,03,29,4.80
2019,06,04,03,30,4.80
2019,06,04,03,31,4.80
2019,06,04,03,32,4.80
2019,06,04,03,33,4.80
2019,06,04,03,34,4.80
2019,06,04,03,35,4.80
2019,06,04,03,36,4.70
2019,06,04,03,37,4.70
2019,06,04,03,38,4.70
2019,06,04,03,39,4.70
2019,06,04,03,40,4.70
2019,06,04,03,41,4.60
2019,06,04,03,42,4.60
2019,06,04,03,43,4.60
2019,06,04,03,44,4.60
2019,06,04,03,45,4.60
2019,06,04,03,46,4.60
2019,06,04,03,47,4.70
2019,06,04,03,48,4.70
2019,06,04,03,49,4.70
2019,06,04,03,50,4.70
2019,06,04,03,51,4.70
2019,06,04,03,52,4.70
2019,06,04,03,53,4.70
2019,06,04,03,54,4.70
2019,06,04,03,55,4.70
2019,06,04,03,56,4.70
2019,06,04,03,57,4.70
2019,06,04,03,58,4.70
2019,06,04,03,59,4.70
2019,06,04,04,00,4.70
2019,06,04,04,01,4.70
2019,06,04,04,02,4.70
2019,06,04,04,03,4.70
2019,06,04,04,04,4.70
2019,06,04,04,05,4.70
2019,06,04,04,06,4.80
2019,06,04,04,07,4.80
2019,06,04,04,08,4.80
2019,06,04,04,09,4.80
2019,06,04,04,10,4.80
2019,06,04,04,11,4.80
2019,06,04,04,12,4.80
2019,06,04,04,13,4.80
2019,06,04,04,14,4.90
2019,06,04,04,15,4.90
2019,06,04,04,16,4.90
2019,06,04,04,17,4.90
2019,06,04,04,18,4.90
2019,06,04,04,19,4.90
2019,06,04,04,20,4.90
2019,06,04,04,21,4.90
2019,06,04,04,22,4.90
2019,06,04,04,23,4.90
2019,06,04,04,24,4.90
2019,06,04,04,25,4.90
2019,06,04,04,26,4.90
2019,06,04,04,27,4.90
2019,06,04,04,28,4.90
2019,06,04,04,29,4.90
2019,06,04,04,30,4.90
2019,06,04,04,31,4.90
2019,06,04,04,32,4.90
2019,06,04,04,33,4.90
2019,06,04,04,34,4.90
2019,06,04,04,35,4.90
2019,06,04,04,36,4.90
2019,06,04,04,37,4.90
2019,06,04,04,38,4.90
2019,06,04,04,39,4.90
2019,06,04,04,40,4.90
2019,06,04,04,41,4.90
2019,06,04,04,42,4.90
2019,06,04,04,43,4.90
2019,06,04,04,44,4.90
2019,06,04,04,45,4.90
2019,06,04,04,46,4.90
2019,06,04,04,47,4.90
2019,06,04,04,48,4.90
2019,06,04,04,49,4.90
2019,06,04,04,50,4.90
2019,06,04,04,51,4.90
2019,06,04,04,52,5.00
2019,06,04,04,53,5.00
2019,06,04,04,54,5.00
2019,06,04,04,55,5.00
2019,06,04,04,56,5.00
2019,06,04,04,57,5.00
2019,06,04,04,58,5.00
2019,06,04,04,59,5.10
2019,06,04,05,00,5.10
2019,06,04,05,01,5.10
2019,06,04,05,02,5.10
2019,06,04,05,03,5.10
2019,06,04,05,04,5.10
2019,06,04,05,05,5.10
2019,06,04,05,06,5.10
2019,06,04,05,07,5.10
2019,06,04,05,08,5.10
2019,06,04,05,09,5.10
2019,06,04,05,10,5.10
2019,06,04,05,11,5.10
2019,06,04,05,12,5.10
2019,06,04,05,13,5.10
2019,06,04,05,14,5.10
2019,06,04,05,15,5.10
2019,06,04,05,16,5.10
2019,06,04,05,17,5.10
2019,06,04,05,18,5.10
2019,06,04,05,19,5.10
2019,06,04,05,20,5.10
2019,06,04,05,21,5.10
2019,06,04,05,22,5.20
2019,06,04,05,23,5.20
2019,06,04,05,24,5.20
2019,06,04,05,25,5.20
2019,06,04,05,26,5.20
2019,06,04,05,27,5.20
2019,06,04,05,28,5.20
2019,06,04,05,29,5.20
2019,06,04,05,30,5.20
2019,06,04,05,31,5.20
2019,06,04,05,32,5.20
2019,06,04,05,33,5.20
2019,06,04,05,34,5.20
2019,06,04,05,35,5.20
2019,06,04,05,36,5.20
2019,06,04,05,37,5.20
2019,06,04,05,38,5.20
2019,06,04,05,39,5.20
2019,06,04,05,40,5.20
2019,06,04,05,41,5.20
2019,06,04,05,42,5.20
2019,06,04,05,43,5.20
2019,06,04,05,44,5.20
2019,06,04,05,45,5.20
2019,06,04,05,46,5.20
2019,06,04,05,47,5.20
2019,06,04,05,48,5.20
2019,06,04,05,49,5.20
2019,06,04,05,50,5.20
2019,06,04,05,51,5.20
2019,06,04,05,52,5.20
2019,06,04,05,53,5.20
2019,06,04,05,54,5.20
2019,06,04,05,55,5.20
2019,06,04,05,56,5.20
2019,06,04,05,57,5.20
2019,06,04,05,58,5.20
2019,06,04,05,59,5.20
2019,06,04,06,00,5.20
2019,06,04,06,01,5.20
2019,06,04,06,02,5.20
2019,06,04,06,03,5.20
2019,06,04,06,04,5.20
2019,06,04,06,05,5.20
2019,06,04,06,06,5.20
2019,06,04,06,07,5.20
2019,06,04,06,08,5.20
2019,06,04,06,09,5.20
2019,06,04,06,10,5.20
2019,06,04,06,11,5.20
2019,06,04,06,12,5.20
2019,06,04,06,13,5.20
2019,06,04,06,14,5.10
2019,06,04,06,15,5.10
2019,06,04,06,16,5.10
2019,06,04,06,17,5.20
2019,06,04,06,18,5.20
2019,06,04,06,19,5.10
2019,06,04,06,20,5.20
2019,06,04,06,21,5.20
2019,06,04,06,22,5.20
2019,06,04,06,23,5.20
2019,06,04,06,24,5.20
2019,06,04,06,25,5.20
2019,06,04,06,26,5.20
2019,06,04,06,27,5.20
2019,06,04,06,28,5.20
2019,06,04,06,29,5.20
2019,06,04,06,30,5.20
2019,06,04,06,31,5.20
2019,06,04,06,32,5.20
2019,06,04,06,33,5.20
2019,06,04,06,34,5.20
2019,06,04,06,35,5.20
2019,06,04,06,36,5.20
2019,06,04,06,37,5.20
2019,06,04,06,38,5.20
2019,06,04,06,39,5.20
2019,06,04,06,40,5.20
2019,06,04,06,41,5.20
2019,06,04,06,42,5.30
2019,06,04,06,43,5.30
2019,06,04,06,44,5.30
2019,06,04,06,45,5.30
2019,06,04,06,46,5.30
2019,06,04,06,47,5.30
2019,06,04,06,48,5.30
2019,06,04,06,49,5.30
2019,06,04,06,50,5.30
2019,06,04,06,51,5.40
2019,06,04,06,52,5.40
2019,06,04,06,53,5.40
2019,06,04,06,54,5.40
2019,06,04,06,55,5.40
2019,06,04,06,56,5.40
2019,06,04,06,57,5.40
2019,06,04,06,58,5.50
2019,06,04,06,59,5.50
2019,06,04,07,00,5.50
2019,06,04,07,01,5.50
2019,06,04,07,02,5.50
2019,06,04,07,03,5.50
2019,06,04,07,04,5.50
2019,06,04,07,05,5.50
2019,06,04,07,06,5.50
2019,06,04,07,07,5.50
2019,06,04,07,08,5.50
2019,06,04,07,09,5.50
2019,06,04,07,10,5.50
2019,06,04,07,11,5.50
2019,06,04,07,12,5.50
2019,06,04,07,13,5.50
2019,06,04,07,14,5.50
2019,06,04,07,15,5.60
2019,06,04,07,16,5.60
2019,06,04,07,17,5.60
2019,06,04,07,18,5.60
2019,06,04,07,19,5.60
2019,06,04,07,20,5.60
2019,06,04,07,21,5.60
2019,06,04,07,22,5.60
2019,06,04,07,23,5.60
2019,06,04,07,24,5.60
2019,06,04,07,25,5.60
2019,06,04,07,26,5.60
2019,06,04,07,27,5.60
2019,06,04,07,28,5.60
2019,06,04,07,29,5.60
2019,06,04,07,30,5.70
2019,06,04,07,31,5.70
2019,06,04,07,32,5.70
2019,06,04,07,33,5.70
2019,06,04,07,34,5.70
2019,06,04,07,35,5.70
2019,06,04,07,36,5.70
2019,06,04,07,37,5.70
2019,06,04,07,38,5.80
2019,06,04,07,39,5.80
2019,06,04,07,40,5.80
2019,06,04,07,41,5.80
2019,06,04,07,42,5.80
2019,06,04,07,43,5.80
2019,06,04,07,44,5.80
2019,06,04,07,45,5.80
2019,06,04,07,46,5.80
2019,06,04,07,47,5.80
2019,06,04,07,48,5.90
2019,06,04,07,49,5.90
2019,06,04,07,50,5.90
2019,06,04,07,51,5.90
2019,06,04,07,52,5.90
2019,06,04,07,53,5.90
2019,06,04,07,54,5.90
2019,06,04,07,55,6.00
2019,06,04,07,56,6.00
2019,06,04,07,57,6.00
2019,06,04,07,58,6.10
2019,06,04,07,59,6.10
2019,06,04,08,00,6.10
2019,06,04,08,01,6.10
2019,06,04,08,02,6.10
2019,06,04,08,03,6.10
2019,06,04,08,04,6.20
2019,06,04,08,05,6.20
2019,06,04,08,06,6.20
2019,06,04,08,07,6.20
2019,06,04,08,08,6.20
2019,06,04,08,09,6.30
2019,06,04,08,10,6.30
2019,06,04,08,11,6.30
2019,06,04,08,12,6.30
2019,06,04,08,13,6.30
2019,06,04,08,14,6.30
2019,06,04,08,15,6.30
2019,06,04,08,16,6.30
2019,06,04,08,17,6.40
2019,06,04,08,18,6.40
2019,06,04,08,19,6.40
2019,06,04,08,20,6.40
2019,06,04,08,21,6.40
2019,06,04,08,22,6.50
2019,06,04,08,23,6.50
2019,06,04,08,24,6.50
2019,06,04,08,25,6.50
2019,06,04,08,26,6.60
2019,06,04,08,27,6.60
2019,06,04,08,28,6.60
2019,06,04,08,29,6.60
2019,06,04,08,30,6.60
2019,06,04,08,31,6.70
2019,06,04,08,32,6.70
2019,06,04,08,33,6.70
2019,06,04,08,34,6.70
2019,06,04,08,35,6.70
2019,06,04,08,36,6.70
2019,06,04,08,37,6.70
2019,06,04,08,38,6.80
2019,06,04,08,39,6.80
2019,06,04,08,40,6.80
2019,06,04,08,41,6.90
2019,06,04,08,42,6.90
2019,06,04,08,43,6.90
2019,06,04,08,44,6.90
2019,06,04,08,45,6.90
2019,06,04,08,46,7.00
2019,06,04,08,47,7.00
2019,06,04,08,48,7.00
2019,06,04,08,49,7.00
2019,06,04,08,50,7.10
2019,06,04,08,51,7.10
2019,06,04,08,52,7.10
2019,06,04,08,53,7.10
2019,06,04,08,54,7.20
2019,06,04,08,55,7.20
2019,06,04,08,56,7.20
2019,06,04,08,57,7.20
2019,06,04,08,58,7.20
2019,06,04,08,59,7.20
2019,06,04,09,00,7.20
2019,06,04,09,01,7.20
2019,06,04,09,02,7.20
2019,06,04,09,03,7.30
2019,06,04,09,04,7.30
2019,06,04,09,05,7.30
2019,06,04,09,06,7.30
2019,06,04,09,07,7.30
2019,06,04,09,08,7.30
2019,06,04,09,09,7.40
2019,06,04,09,10,7.40
2019,06,04,09,11,7.40
2019,06,04,09,12,7.40
2019,06,04,09,13,7.50
2019,06,04,09,14,7.50
2019,06,04,09,15,7.60
2019,06,04,09,16,7.60
2019,06,04,09,17,7.60
2019,06,04,09,18,7.60
2019,06,04,09,19,7.60
2019,06,04,09,20,7.70
2019,06,04,09,21,7.70
2019,06,04,09,22,7.70
2019,06,04,09,23,7.70
2019,06,04,09,24,7.70
2019,06,04,09,25,7.80
2019,06,04,09,26,7.80
2019,06,04,09,27,7.80
2019,06,04,09,28,7.80
2019,06,04,09,29,7.80
2019,06,04,09,30,7.80
2019,06,04,09,31,7.90
2019,06,04,09,32,7.90
2019,06,04,09,33,7.90
2019,06,04,09,34,7.90
2019,06,04,09,35,8.00
2019,06,04,09,36,8.00
2019,06,04,09,37,8.10
2019,06,04,09,38,8.10
2019,06,04,09,39,8.20
2019,06,04,09,40,8.20
2019,06,04,09,41,8.20
2019,06,04,09,42,8.30
2019,06,04,09,43,8.30
2019,06,04,09,44,8.30
2019,06,04,09,45,8.40
2019,06,04,09,46,8.40
2019,06,04,09,47,8.50
2019,06,04,09,48,8.50
2019,06,04,09,49,8.60
2019,06,04,09,50,8.60
2019,06,04,09,51,8.60
2019,06,04,09,52,8.70
2019,06,04,09,53,8.70
2019,06,04,09,54,8.80
2019,06,04,09,55,8.80
2019,06,04,09,56,8.90
2019,06,04,09,57,9.00
2019,06,04,09,58,9.00
2019,06,04,09,59,9.10
2019,06,04,10,00,9.10
2019,06,04,10,01,9.10
2019,06,04,10,02,9.10
2019,06,04,10,03,9.20
2019,06,04,10,04,9.30
2019,06,04,10,05,9.30
2019,06,04,10,06,9.40
2019,06,04,10,07,9.40
2019,06,04,10,08,9.50
2019,06,04,10,09,9.50
2019,06,04,10,10,9.60
2019,06,04,10,11,9.60
2019,06,04,10,12,9.70
2019,06,04,10,13,9.70
2019,06,04,10,14,9.70
2019,06,04,10,15,9.80
2019,06,04,10,16,9.80
2019,06,04,10,17,9.80
2019,06,04,10,18,9.80
2019,06,04,10,19,9.80
2019,06,04,10,20,9.80
2019,06,04,10,21,9.80
2019,06,04,10,22,9.80
2019,06,04,10,23,9.90
2019,06,04,10,24,9.90
2019,06,04,10,25,9.90
2019,06,04,10,26,9.90
2019,06,04,10,27,9.90
2019,06,04,10,28,9.90
2019,06,04,10,29,9.90
2019,06,04,10,30,10.00
2019,06,04,10,31,10.00
2019,06,04,10,32,10.10
2019,06,04,10,33,10.10
2019,06,04,10,34,10.10
2019,06,04,10,35,10.10
2019,06,04,10,36,10.20
2019,06,04,10,37,10.20
2019,06,04,10,38,10.20
2019,06,04,10,39,10.30
2019,06,04,10,40,10.30
2019,06,04,10,41,10.30
2019,06,04,10,42,10.30
2019,06,04,10,43,10.40
2019,06,04,10,44,10.40
2019,06,04,10,45,10.40
2019,06,04,10,46,10.40
2019,06,04,10,47,10.40
2019,06,04,10,48,10.40
2019,06,04,10,49,10.40
2019,06,04,10,50,10.40
2019,06,04,10,51,10.40
2019,06,04,10,52,10.50
2019,06,04,10,53,10.50
2019,06,04,10,54,10.50
2019,06,04,10,55,10.50
2019,06,04,10,56,10.50
2019,06,04,10,57,10.50
2019,06,04,10,58,10.50
2019,06,04,10,59,10.50
2019,06,04,11,00,10.50
2019,06,04,11,01,10.50
2019,06,04,11,02,10.50
2019,06,04,11,03,10.60
2019,06,04,11,04,10.60
2019,06,04,11,05,10.60
2019,06,04,11,06,10.70
2019,06,04,11,07,10.70
2019,06,04,11,08,10.70
2019,06,04,11,09,10.70
2019,06,04,11,10,10.70
2019,06,04,11,11,10.70
2019,06,04,11,12,10.80
2019,06,04,11,13,10.80
2019,06,04,11,14,10.80
2019,06,04,11,15,10.80
2019,06,04,11,16,10.80
2019,06,04,11,17,10.80
2019,06,04,11,18,10.80
2019,06,04,11,19,10.80
2019,06,04,11,20,10.80
2019,06,04,11,21,10.80
2019,06,04,11,22,10.80
2019,06,04,11,23,10.90
2019,06,04,11,24,11.00
2019,06,04,11,25,11.00
2019,06,04,11,26,11.10
2019,06,04,11,27,11.10
2019,06,04,11,28,11.10
2019,06,04,11,29,11.10
2019,06,04,11,30,11.10
2019,06,04,11,31,11.20
2019,06,04,11,32,11.20
2019,06,04,11,33,11.20
2019,06,04,11,34,11.20
2019,06,04,11,35,11.30
2019,06,04,11,36,11.30
2019,06,04,11,37,11.30
2019,06,04,11,38,11.30
2019,06,04,11,39,11.30
2019,06,04,11,40,11.30
2019,06,04,11,41,11.40
2019,06,04,11,42,11.40
2019,06,04,11,43,11.40
2019,06,04,11,44,11.40
2019,06,04,11,45,11.40
2019,06,04,11,46,11.40
2019,06,04,11,47,11.40
2019,06,04,11,48,11.40
2019,06,04,11,49,11.50
2019,06,04,11,50,11.50
2019,06,04,11,51,11.60
2019,06,04,11,52,11.60
2019,06,04,11,53,11.60
2019,06,04,11,54,11.70
2019,06,04,11,55,11.70
2019,06,04,11,56,11.80
2019,06,04,11,57,11.80
2019,06,04,11,58,11.90
2019,06,04,11,59,12.00
2019,06,04,12,00,12.00
2019,06,04,12,01,12.10
2019,06,04,12,02,12.20
2019,06,04,12,03,12.20
2019,06,04,12,04,12.20
2019,06,04,12,05,12.20
2019,06,04,12,06,12.20
2019,06,04,12,07,12.20
2019,06,04,12,08,12.20
2019,06,04,12,09,12.20
2019,06,04,12,10,12.20
2019,06,04,12,11,12.30
2019,06,04,12,12,12.30
2019,06,04,12,13,12.30
2019,06,04,12,14,12.20
2019,06,04,12,15,12.20
2019,06,04,12,16,12.30
2019,06,04,12,17,12.30
2019,06,04,12,18,12.30
2019,06,04,12,19,12.40
2019,06,04,12,20,12.50
2019,06,04,12,21,12.60
2019,06,04,12,22,12.70
2019,06,04,12,23,12.80
2019,06,04,12,24,13.00
2019,06,04,12,25,13.20
2019,06,04,12,26,13.30
2019,06,04,12,27,13.40
2019,06,04,12,28,13.40
2019,06,04,12,29,13.40
2019,06,04,12,30,13.50
2019,06,04,12,31,13.40
2019,06,04,12,32,13.40
2019,06,04,12,33,13.40
2019,06,04,12,34,13.40
2019,06,04,12,35,13.50
2019,06,04,12,36,13.50
2019,06,04,12,37,13.60
2019,06,04,12,38,13.70
2019,06,04,12,39,13.80
2019,06,04,12,40,13.90
2019,06,04,12,41,13.80
2019,06,04,12,42,13.80
2019,06,04,12,43,13.80
2019,06,04,12,44,13.80
2019,06,04,12,45,13.80
2019,06,04,12,46,13.80
2019,06,04,12,47,13.90
2019,06,04,12,48,13.90
2019,06,04,12,49,13.90
2019,06,04,12,50,13.90
2019,06,04,12,51,13.90
2019,06,04,12,52,14.00
2019,06,04,12,53,14.00
2019,06,04,12,54,14.00
2019,06,04,12,55,14.10
2019,06,04,12,56,14.00
2019,06,04,12,57,14.00
2019,06,04,12,58,13.90
2019,06,04,12,59,13.90
2019,06,04,13,00,13.80
2019,06,04,13,01,13.80
2019,06,04,13,02,13.80
2019,06,04,13,03,13.80
2019,06,04,13,04,13.80
2019,06,04,13,05,13.80
2019,06,04,13,06,13.80
2019,06,04,13,07,13.80
2019,06,04,13,08,13.80
2019,06,04,13,09,13.90
2019,06,04,13,10,13.90
2019,06,04,13,11,14.00
2019,06,04,13,12,14.00
2019,06,04,13,13,14.00
2019,06,04,13,14,14.00
2019,06,04,13,15,14.10
2019,06,04,13,16,14.20
2019,06,04,13,17,14.20
2019,06,04,13,18,14.20
2019,06,04,13,19,14.30
2019,06,04,13,20,14.20
2019,06,04,13,21,14.20
2019,06,04,13,22,14.20
2019,06,04,13,23,14.20
2019,06,04,13,24,14.20
2019,06,04,13,25,14.30
2019,06,04,13,26,14.30
2019,06,04,13,27,14.30
2019,06,04,13,28,14.30
2019,06,04,13,29,14.20
2019,06,04,13,30,14.30
2019,06,04,13,31,14.30
2019,06,04,13,32,14.30
2019,06,04,13,33,14.30
2019,06,04,13,34,14.30
2019,06,04,13,35,14.30
2019,06,04,13,36,14.20
2019,06,04,13,37,14.20
2019,06,04,13,38,14.20
2019,06,04,13,39,14.20
2019,06,04,13,40,14.20
2019,06,04,13,41,14.20
2019,06,04,13,42,14.30
2019,06,04,13,43,14.30
2019,06,04,13,44,14.30
2019,06,04,13,45,14.30
2019,06,04,13,46,14.30
2019,06,04,13,47,14.30
2019,06,04,13,48,14.30
2019,06,04,13,49,14.30
2019,06,04,13,50,14.30
2019,06,04,13,51,14.20
2019,06,04,13,52,14.20
2019,06,04,13,53,14.20
2019,06,04,13,54,14.30
2019,06,04,13,55,14.30
2019,06,04,13,56,14.30
2019,06,04,13,57,14.30
2019,06,04,13,58,14.30
2019,06,04,13,59,14.40
2019,06,04,14,00,14.40
2019,06,04,14,01,14.40
2019,06,04,14,02,14.40
2019,06,04,14,03,14.40
2019,06,04,14,04,14.50
2019,06,04,14,05,14.50
2019,06,04,14,06,14.60
2019,06,04,14,07,14.70
2019,06,04,14,08,14.80
2019,06,04,14,09,14.90
2019,06,04,14,10,15.10
2019,06,04,14,11,15.20
2019,06,04,14,12,15.40
2019,06,04,14,13,15.50
2019,06,04,14,14,15.60
2019,06,04,14,15,15.70
2019,06,04,14,16,15.80
2019,06,04,14,17,15.80
2019,06,04,14,18,15.70
2019,06,04,14,19,15.70
2019,06,04,14,20,15.70
2019,06,04,14,21,15.70
2019,06,04,14,22,15.70
2019,06,04,14,23,15.70
2019,06,04,14,24,15.60
2019,06,04,14,25,15.60
2019,06,04,14,26,15.60
2019,06,04,14,27,15.50
2019,06,04,14,28,15.50
2019,06,04,14,29,15.40
2019,06,04,14,30,15.40
2019,06,04,14,31,15.40
2019,06,04,14,32,15.30
2019,06,04,14,33,15.30
2019,06,04,14,34,15.30
2019,06,04,14,35,15.30
2019,06,04,14,36,15.30
2019,06,04,14,37,15.30
2019,06,04,14,38,15.30
2019,06,04,14,39,15.30
2019,06,04,14,40,15.30
2019,06,04,14,41,15.30
2019,06,04,14,42,15.30
2019,06,04,14,43,15.40
2019,06,04,14,44,15.40
2019,06,04,14,45,15.30
2019,06,04,14,46,15.30
2019,06,04,14,47,15.30
2019,06,04,14,48,15.20
2019,06,04,14,49,15.20
2019,06,04,14,50,15.20
2019,06,04,14,51,15.10
2019,06,04,14,52,15.10
2019,06,04,14,53,15.10
2019,06,04,14,54,15.20
2019,06,04,14,55,15.20
2019,06,04,14,56,15.20
2019,06,04,14,57,15.20
2019,06,04,14,58,15.30
2019,06,04,14,59,15.30
2019,06,04,15,00,15.30
2019,06,04,15,01,15.30
2019,06,04,15,02,15.30
2019,06,04,15,03,15.30
2019,06,04,15,04,15.40
2019,06,04,15,05,15.40
2019,06,04,15,06,15.40
2019,06,04,15,07,15.50
2019,06,04,15,08,15.50
2019,06,04,15,09,15.50
2019,06,04,15,10,15.60
2019,06,04,15,11,15.60
2019,06,04,15,12,15.60
2019,06,04,15,13,15.70
2019,06,04,15,14,15.70
2019,06,04,15,15,15.70
2019,06,04,15,16,15.80
2019,06,04,15,17,15.80
2019,06,04,15,18,15.80
2019,06,04,15,19,15.80
2019,06,04,15,20,15.90
2019,06,04,15,21,16.00
2019,06,04,15,22,16.10
2019,06,04,15,23,16.20
2019,06,04,15,24,16.30
2019,06,04,15,25,16.40
2019,06,04,15,26,16.40
2019,06,04,15,27,16.50
2019,06,04,15,28,16.50
2019,06,04,15,29,16.60
2019,06,04,15,30,16.60
2019,06,04,15,31,16.60
2019,06,04,15,32,16.60
2019,06,04,15,33,16.70
2019,06,04,15,34,16.80
2019,06,04,15,35,16.80
2019,06,04,15,36,16.90
2019,06,04,15,37,16.90
2019,06,04,15,38,17.00
2019,06,04,15,39,17.00
2019,06,04,15,40,17.00
2019,06,04,15,41,16.90
2019,06,04,15,42,16.90
2019,06,04,15,43,16.80
2019,06,04,15,44,16.80
2019,06,04,15,45,16.70
2019,06,04,15,46,16.70
2019,06,04,15,47,16.70
2019,06,04,15,48,16.70
2019,06,04,15,49,16.70
2019,06,04,15,50,16.70
2019,06,04,15,51,16.70
2019,06,04,15,52,16.70
2019,06,04,15,53,16.60
2019,06,04,15,54,16.70
2019,06,04,15,55,16.70
2019,06,04,15,56,16.70
2019,06,04,15,57,16.60
2019,06,04,15,58,16.60
2019,06,04,15,59,16.70
2019,06,04,16,00,16.70
2019,06,04,16,01,16.60
2019,06,04,16,02,16.60
2019,06,04,16,03,16.60
2019,06,04,16,04,16.60
2019,06,04,16,05,16.60
2019,06,04,16,06,16.70
2019,06,04,16,07,16.70
2019,06,04,16,08,16.60
2019,06,04,16,09,16.60
2019,06,04,16,10,16.60
2019,06,04,16,11,16.60
2019,06,04,16,12,16.60
2019,06,04,16,13,16.60
2019,06,04,16,14,16.50
2019,06,04,16,15,16.40
2019,06,04,16,16,16.40
2019,06,04,16,17,16.50
2019,06,04,16,18,16.50
2019,06,04,16,19,16.60
2019,06,04,16,20,16.70
2019,06,04,16,21,16.70
2019,06,04,16,22,16.80
2019,06,04,16,23,16.80
2019,06,04,16,24,16.90
2019,06,04,16,25,16.90
2019,06,04,16,26,17.00
2019,06,04,16,27,17.00
2019,06,04,16,28,17.00
2019,06,04,16,29,16.90
2019,06,04,16,30,16.90
2019,06,04,16,31,16.90
2019,06,04,16,32,16.80
2019,06,04,16,33,16.70
2019,06,04,16,34,16.70
2019,06,04,16,35,16.60
2019,06,04,16,36,16.60
2019,06,04,16,37,16.60
2019,06,04,16,38,16.60
2019,06,04,16,39,16.50
2019,06,04,16,40,16.50
2019,06,04,16,41,16.40
2019,06,04,16,42,16.40
2019,06,04,16,43,16.40
2019,06,04,16,44,16.40
2019,06,04,16,45,16.40
2019,06,04,16,46,16.30
2019,06,04,16,47,16.30
2019,06,04,16,48,16.20
2019,06,04,16,49,16.20
2019,06,04,16,50,16.20
2019,06,04,16,51,16.10
2019,06,04,16,52,16.10
2019,06,04,16,53,16.00
2019,06,04,16,54,16.00
2019,06,04,16,55,15.90
2019,06,04,16,56,15.90
2019,06,04,16,57,15.90
2019,06,04,16,58,15.90
2019,06,04,16,59,15.80
2019,06,04,17,00,15.80
2019,06,04,17,01,15.80
2019,06,04,17,02,15.80
2019,06,04,17,03,15.80
2019,06,04,17,04,15.80
2019,06,04,17,05,15.70
2019,06,04,17,06,15.70
2019,06,04,17,07,15.70
2019,06,04,17,08,15.70
2019,06,04,17,09,15.70
2019,06,04,17,10,15.70
2019,06,04,17,11,15.60
2019,06,04,17,12,15.60
2019,06,04,17,13,15.60
2019,06,04,17,14,15.60
2019,06,04,17,15,15.50
2019,06,04,17,16,15.50
2019,06,04,17,17,15.50
2019,06,04,17,18,15.40
2019,06,04,17,19,15.40
2019,06,04,17,20,15.40
2019,06,04,17,21,15.40
2019,06,04,17,22,15.40
2019,06,04,17,23,15.40
2019,06,04,17,24,15.40
2019,06,04,17,25,15.40
2019,06,04,17,26,15.40
2019,06,04,17,27,15.40
2019,06,04,17,28,15.40
2019,06,04,17,29,15.30
2019,06,04,17,30,15.30
2019,06,04,17,31,15.30
2019,06,04,17,32,15.40
2019,06,04,17,33,15.40
2019,06,04,17,34,15.40
2019,06,04,17,35,15.40
2019,06,04,17,36,15.40
2019,06,04,17,37,15.50
2019,06,04,17,38,15.50
2019,06,04,17,39,15.50
2019,06,04,17,40,15.50
2019,06,04,17,41,15.60
2019,06,04,17,42,15.60
2019,06,04,17,43,15.60
2019,06,04,17,44,15.60
2019,06,04,17,45,15.60